Time,TemperatureF,DewpointF,PressureIn,WindDirection,WindDirectionDegrees,WindSpeedMPH,WindSpeedGustMPH,Humidity,HourlyPrecipIn,Conditions,Clouds,dailyrainin,SolarRadiationWatts/m^2,SoftwareType,DateUTC
2013-11-28 00:01:00,34.0,20.0,30.22,ENE,71,10.0,12.0,57,-99.99,,,-99.99,0.000000,,2013-11-28 07:01:00,
2013-11-28 00:21:00,34.0,20.0,30.21,East,80,11.0,11.0,56,-99.99,,,-99.99,0.000000,,2013-11-28 07:21:00,
2013-11-28 00:32:00,34.0,20.0,30.21,East,80,11.0,11.0,56,-99.99,,,-99.99,0.000000,,2013-11-28 07:32:00,
2013-11-28 01:22:00,34.0,20.0,30.20,East,80,7.0,9.0,55,-99.99,,,-99.99,0.000000,,2013-11-28 08:22:00,
2013-11-28 01:42:00,35.0,19.0,30.20,ENE,77,6.0,8.0,50,-99.99,,,-99.99,0.000000,,2013-11-28 08:42:00,
2013-11-28 01:53:00,36.0,18.0,30.20,ENE,72,4.0,7.0,49,-99.99,,,-99.99,0.000000,,2013-11-28 08:53:00,
2013-11-28 02:02:00,36.0,18.0,30.20,ENE,72,4.0,7.0,49,-99.99,,,-99.99,0.000000,,2013-11-28 09:02:00,
2013-11-28 02:21:00,35.0,19.0,30.20,East,98,6.0,9.0,50,-99.99,,,-99.99,0.000000,,2013-11-28 09:21:00,
2013-11-28 02:33:00,35.0,19.0,30.20,East,98,6.0,9.0,50,-99.99,,,-99.99,0.000000,,2013-11-28 09:33:00,
2013-11-28 05:22:00,34.0,20.0,30.19,ENE,76,6.0,7.0,55,-99.99,,,-99.99,0.000000,,2013-11-28 12:22:00,
2013-11-28 05:42:00,34.0,20.0,30.20,ENE,76,5.0,6.0,54,-99.99,,,-99.99,0.000000,,2013-11-28 12:42:00,
2013-11-28 06:21:00,35.0,19.0,30.21,East,88,6.0,7.0,53,-99.99,,,-99.99,0.000000,,2013-11-28 13:21:00,
2013-11-28 06:32:00,35.0,19.0,30.21,East,88,6.0,7.0,53,-99.99,,,-99.99,0.000000,,2013-11-28 13:32:00,
2013-11-28 07:42:00,36.0,20.0,30.23,ENE,68,5.0,6.0,50,-99.99,,,-99.99,34.169998,,2013-11-28 14:42:00,
2013-11-28 08:22:00,38.0,20.0,30.24,East,93,6.0,7.0,47,-99.99,,,-99.99,157.600006,,2013-11-28 15:22:00,
2013-11-28 08:33:00,38.0,20.0,30.24,East,93,6.0,7.0,47,-99.99,,,-99.99,157.600006,,2013-11-28 15:33:00,
2013-11-28 08:54:00,39.0,20.0,30.24,East,88,7.0,10.0,45,-99.99,,,-99.99,234.300003,,2013-11-28 15:54:00,
2013-11-28 09:03:00,39.0,20.0,30.24,East,88,7.0,10.0,45,-99.99,,,-99.99,234.300003,,2013-11-28 16:03:00,
2013-11-28 09:23:00,39.0,21.0,30.25,East,87,8.0,10.0,48,-99.99,,,-99.99,308.920013,,2013-11-28 16:23:00,
2013-11-28 09:43:00,40.0,22.0,30.26,East,87,7.0,9.0,48,-99.99,,,-99.99,343.790009,,2013-11-28 16:43:00,
2013-11-28 11:22:00,42.0,24.0,30.27,East,96,5.0,11.0,48,-99.99,,,-99.99,515.330017,,2013-11-28 18:22:00,
2013-11-28 11:32:00,42.0,24.0,30.27,East,96,5.0,11.0,48,-99.99,,,-99.99,515.330017,,2013-11-28 18:32:00,
2013-11-28 12:22:00,45.0,22.0,30.25,WSW,255,6.0,10.0,40,-99.99,,,-99.99,545.309998,,2013-11-28 19:22:00,
2013-11-28 12:32:00,45.0,22.0,30.25,WSW,255,6.0,10.0,40,-99.99,,,-99.99,545.309998,,2013-11-28 19:32:00,
2013-11-28 13:42:00,45.0,25.0,30.23,East,82,7.0,12.0,46,-99.99,,,-99.99,493.010010,,2013-11-28 20:42:00,
2013-11-28 14:21:00,45.0,25.0,30.22,East,81,9.0,12.0,45,-99.99,,,-99.99,459.540009,,2013-11-28 21:21:00,
2013-11-28 14:32:00,45.0,25.0,30.22,East,81,9.0,12.0,45,-99.99,,,-99.99,459.540009,,2013-11-28 21:32:00,
2013-11-28 15:23:00,47.0,25.0,30.22,ESE,108,5.0,9.0,43,-99.99,,,-99.99,304.040009,,2013-11-28 22:23:00,
2013-11-28 15:33:00,47.0,25.0,30.22,ESE,108,5.0,9.0,43,-99.99,,,-99.99,304.040009,,2013-11-28 22:33:00,
2013-11-28 18:52:00,41.0,25.0,30.24,East,81,10.0,11.0,52,-99.99,,,-99.99,0.000000,,2013-11-29 01:52:00,
2013-11-28 19:02:00,41.0,25.0,30.24,East,81,10.0,11.0,52,-99.99,,,-99.99,0.000000,,2013-11-29 02:02:00,
2013-11-28 19:22:00,44.0,24.0,30.26,East,86,11.0,13.0,44,-99.99,,,-99.99,0.000000,,2013-11-29 02:22:00,
2013-11-28 19:32:00,44.0,24.0,30.26,East,86,11.0,13.0,44,-99.99,,,-99.99,0.000000,,2013-11-29 02:32:00,
2013-11-28 21:23:00,46.0,22.0,30.28,ENE,67,11.0,15.0,37,-99.99,,,-99.99,0.000000,,2013-11-29 04:23:00,
2013-11-28 21:43:00,45.0,22.0,30.29,ENE,74,12.0,14.0,40,-99.99,,,-99.99,0.000000,,2013-11-29 04:43:00,
2013-11-28 22:43:00,42.0,22.0,30.29,ENE,74,13.0,14.0,45,-99.99,,,-99.99,0.000000,,2013-11-29 05:43:00,
2013-11-28 23:42:00,43.0,22.0,30.29,ENE,73,12.0,14.0,43,-99.99,,,-99.99,0.000000,,2013-11-29 06:42:00,